This demonstration page uses our WeatherBlox Daily Observations layout. Learn more.

38.89511, -77.03637

Hourly Observations for September 8, 2017

Temp ( °F °C ) Dew Point ( °F °C ) Humidity (%) Winds ( mph kmh ) Pressure ( in mb ) Visibility ( mi km ) Precip ( " mm )
12:52 am 00:52 Clear 61 16.1 52 11.1 72 72 WSW 3 6 30.09 1019 10 16.09344 0 0
1:52 am 01:52 Partly Cloudy 59 15 51 10.6 75 75 WSW 5 7 30.09 1019 10 16.09344 0 0
2:52 am 02:52 Mostly Clear 58 14.4 53 11.7 84 84 SSW 5 7 30.12 1020 10 16.09344 0 0
3:52 am 03:52 Partly Cloudy 58 14.4 53 11.7 84 84 SSW 6 9 30.12 1020 10 16.09344 0 0
4:52 am 04:52 Partly Cloudy 56 13.3 52 11.1 87 87 SW 3 6 30.12 1020 10 16.09344 0 0
5:52 am 05:52 Partly Cloudy 57 13.9 52 11.1 83 83 SSW 3 6 30.12 1020 10 16.09344 0 0
6:52 am 06:52 Partly Cloudy 56 13.3 51 10.6 84 84 SW 6 9 30.15 1021 10 16.09344 0 0
7:52 am 07:52 Partly Cloudy 59 15 52 11.1 78 78 WSW 3 6 30.15 1021 10 16.09344 0 0
8:52 am 08:52 Mostly Sunny 63 17.2 53 11.7 70 70 S 5 7 30.15 1021 10 16.09344 0 0
9:52 am 09:52 Partly Cloudy 68 20 53 11.7 59 59 N 5 7 30.18 1022 10 16.09344 0 0
10:52 am 10:52 Partly Cloudy 71 21.7 50 10 47 47 WSW 8 13 30.18 1022 10 16.09344 0 0
11:52 am 11:52 Mostly Sunny 73 22.8 51 10.6 46 46 W 7 11 30.18 1022 10 16.09344 0 0
12:52 pm 12:52 Partly Cloudy 75 23.9 51 10.6 43 43 NW 8 13 30.15 1021 10 16.09344 0 0
1:52 pm 13:52 Mostly Cloudy 76 24.4 51 10.6 42 42 WNW 7 11 30.15 1021 10 16.09344 0 0
2:52 pm 14:52 Mostly Cloudy 76 24.4 53 11.7 45 45 N 8 13 30.15 1021 10 16.09344 0 0
3:52 pm 15:52 Mostly Cloudy 74 23.3 51 10.6 45 45 WNW 10 17 30.15 1021 10 16.09344 0 0
4:52 pm 16:52 Mostly Cloudy 74 23.3 52 11.1 46 46 N 10 17 30.12 1020 10 16.09344 0 0
5:52 pm 17:52 Mostly Cloudy 75 23.9 52 11.1 45 45 N 7 11 30.15 1021 10 16.09344 0 0
6:52 pm 18:52 Mostly Cloudy 72 22.2 51 10.6 48 48 N 8 13 30.15 1021 10 16.09344 0 0
7:52 pm 19:52 Partly Cloudy 72 22.2 53 11.7 52 52 N 7 11 30.15 1021 10 16.09344 0 0
8:52 pm 20:52 Cloudy 70 21.1 55 12.8 59 59 N 9 15 30.18 1022 10 16.09344 0 0
9:52 pm 21:52 Cloudy 68 20 53 11.7 59 59 N 7 11 30.21 1023 10 16.09344 0 0
10:52 pm 22:52 Mostly Cloudy 66 18.9 53 11.7 63 63 N 7 11 30.21 1023 10 16.09344 0 0
11:52 pm 23:52 Partly Cloudy 64 17.8 52 11.1 65 65 NNW 5 7 30.21 1023 10 16.09344 0 0

Powered by AerisWeather